TimeCST,TemperatureF,Dew PointF,Humidity,Sea Level PressureIn,VisibilityMPH,Wind Direction,Wind SpeedMPH,Gust SpeedMPH,PrecipitationIn,Events,Conditions,WindDirDegrees,DateUTC
12:15 AM,24.8,19.4,80,29.81,10.0,SSW,6.9,-,N/A,,Overcast,200,2011-12-31 06:15:00
12:55 AM,24.8,17.6,74,29.81,10.0,Calm,Calm,-,N/A,,Mostly Cloudy,0,2011-12-31 06:55:00
1:35 AM,21.2,17.6,86,29.79,10.0,SE,4.6,-,N/A,,Clear,130,2011-12-31 07:35:00
1:55 AM,21.2,15.8,80,29.79,10.0,ESE,3.5,-,N/A,,Clear,120,2011-12-31 07:55:00
2:35 AM,19.4,17.6,93,29.79,10.0,Calm,Calm,-,N/A,,Clear,0,2011-12-31 08:35:00
2:55 AM,17.6,17.6,100,29.79,10.0,Calm,Calm,-,N/A,,Clear,0,2011-12-31 08:55:00
3:15 AM,15.8,14.0,93,29.79,10.0,Calm,Calm,-,N/A,,Clear,0,2011-12-31 09:15:00
3:35 AM,15.8,15.8,100,29.79,10.0,Calm,Calm,-,N/A,,Clear,0,2011-12-31 09:35:00
3:55 AM,17.6,17.6,100,29.79,10.0,Calm,Calm,-,N/A,,Clear,0,2011-12-31 09:55:00
4:15 AM,19.4,19.4,100,29.79,10.0,South,6.9,-,N/A,,Clear,170,2011-12-31 10:15:00
4:35 AM,19.4,17.6,93,29.78,10.0,SSE,5.8,-,N/A,,Clear,160,2011-12-31 10:35:00
4:55 AM,21.2,17.6,86,29.78,10.0,SSE,5.8,-,N/A,,Clear,160,2011-12-31 10:55:00
6:35 AM,19.4,17.6,93,29.76,10.0,East,4.6,-,N/A,,Clear,80,2011-12-31 12:35:00
6:55 AM,21.2,17.6,86,29.74,10.0,East,8.1,-,N/A,,Clear,90,2011-12-31 12:55:00
7:15 AM,21.2,17.6,86,29.76,10.0,Calm,Calm,-,N/A,,Clear,0,2011-12-31 13:15:00
7:35 AM,21.2,17.6,86,29.77,10.0,Calm,Calm,-,N/A,,Clear,0,2011-12-31 13:35:00
7:55 AM,19.4,17.6,93,29.77,10.0,Calm,Calm,-,N/A,,Clear,0,2011-12-31 13:55:00
8:15 AM,21.2,19.4,93,29.79,10.0,South,5.8,-,N/A,,Partly Cloudy,180,2011-12-31 14:15:00
8:35 AM,21.2,17.6,86,29.79,10.0,SSW,3.5,-,N/A,,Scattered Clouds,200,2011-12-31 14:35:00
9:15 AM,24.8,19.4,80,29.77,10.0,SSE,9.2,-,N/A,,Clear,160,2011-12-31 15:15:00
9:35 AM,24.8,17.6,74,29.77,10.0,South,10.4,-,N/A,,Clear,170,2011-12-31 15:35:00
10:35 AM,26.6,19.4,74,29.75,10.0,SE,12.7,20.7,N/A,,Clear,140,2011-12-31 16:35:00
10:55 AM,26.6,19.4,74,29.74,10.0,SE,8.1,16.1,N/A,,Clear,140,2011-12-31 16:55:00
11:15 AM,26.6,21.2,80,29.74,10.0,SSE,6.9,-,N/A,,Clear,150,2011-12-31 17:15:00
11:35 AM,28.4,19.4,69,29.74,10.0,SSE,6.9,-,N/A,,Clear,160,2011-12-31 17:35:00
11:55 AM,28.4,19.4,69,29.71,10.0,SE,8.1,-,N/A,,Partly Cloudy,140,2011-12-31 17:55:00
12:15 PM,28.4,21.2,74,29.68,10.0,ESE,11.5,17.3,N/A,,Mostly Cloudy,120,2011-12-31 18:15:00
12:35 PM,28.4,19.4,69,29.68,10.0,SE,9.2,-,N/A,,Overcast,130,2011-12-31 18:35:00
12:55 PM,30.2,19.4,64,29.67,10.0,SE,5.8,-,N/A,,Overcast,140,2011-12-31 18:55:00
1:15 PM,30.2,21.2,69,29.64,10.0,SE,12.7,24.2,N/A,,Overcast,130,2011-12-31 19:15:00
1:35 PM,30.2,19.4,64,29.64,10.0,East,4.6,-,N/A,,Overcast,100,2011-12-31 19:35:00
1:55 PM,30.2,21.2,69,29.63,10.0,SE,8.1,-,N/A,,Overcast,130,2011-12-31 19:55:00
2:55 PM,32.0,19.4,60,29.61,10.0,SE,6.9,-,N/A,,Overcast,140,2011-12-31 20:55:00
3:15 PM,32.0,21.2,64,29.62,10.0,ESE,8.1,-,N/A,,Overcast,120,2011-12-31 21:15:00
3:35 PM,33.8,19.4,56,29.63,10.0,SE,4.6,-,N/A,,Overcast,130,2011-12-31 21:35:00
3:55 PM,33.8,21.2,60,29.63,10.0,South,5.8,-,N/A,,Overcast,170,2011-12-31 21:55:00
4:15 PM,33.8,23.0,65,29.64,10.0,SW,3.5,-,N/A,,Overcast,220,2011-12-31 22:15:00
4:35 PM,32.0,23.0,69,29.66,10.0,SW,8.1,-,N/A,,Mostly Cloudy,220,2011-12-31 22:35:00
4:55 PM,32.0,21.2,64,29.66,10.0,SW,4.6,-,N/A,,Clear,230,2011-12-31 22:55:00
5:15 PM,32.0,21.2,64,29.67,10.0,SSW,3.5,-,N/A,,Scattered Clouds,200,2011-12-31 23:15:00
5:35 PM,30.2,23.0,75,29.68,10.0,SW,4.6,-,N/A,,Mostly Cloudy,230,2011-12-31 23:35:00
5:55 PM,30.2,24.8,80,29.67,10.0,Calm,Calm,-,N/A,,Overcast,0,2011-12-31 23:55:00
6:15 PM,30.2,24.8,80,29.67,10.0,Calm,Calm,-,N/A,,Overcast,0,2012-01-01 00:15:00
6:35 PM,30.2,23.0,75,29.67,10.0,SSE,4.6,-,N/A,,Overcast,150,2012-01-01 00:35:00
6:55 PM,30.2,24.8,80,29.67,10.0,South,4.6,-,N/A,,Overcast,180,2012-01-01 00:55:00
7:35 PM,30.2,24.8,80,29.66,10.0,South,8.1,-,N/A,,Overcast,190,2012-01-01 01:35:00
8:35 PM,32.0,26.6,80,29.64,10.0,South,9.2,-,N/A,,Overcast,190,2012-01-01 02:35:00
8:55 PM,30.2,26.6,86,29.63,10.0,South,9.2,-,N/A,,Overcast,190,2012-01-01 02:55:00
9:35 PM,32.0,26.6,80,29.63,10.0,SSW,10.4,-,N/A,,Overcast,200,2012-01-01 03:35:00
10:35 PM,30.2,28.4,93,29.63,1.5,WSW,4.6,-,N/A,,Overcast,250,2012-01-01 04:35:00
10:55 PM,30.2,26.6,86,29.62,1.0,West,4.6,-,N/A,,Overcast,270,2012-01-01 04:55:00
11:15 PM,30.2,28.4,93,29.61,1.0,WSW,4.6,-,N/A,,Overcast,250,2012-01-01 05:15:00
11:35 PM,30.2,28.4,93,29.62,1.0,WSW,4.6,-,N/A,,Overcast,250,2012-01-01 05:35:00